EW5465 Staten Island NY US current weather conditions

sailwx.info

Wind from 322 at 1 knots gusting 7

Air temperature 4.4° C
Dewpoint -3.3° C

Last reported at 2020-Jan-28 21:05 UTC.
Time now 2020-Jan-28 22:11 UTC

Location: N 40°34' W 074°08'.
View on Google Maps.

See reports from other nearby stations

  
Tides and Currents Weather Stations Pressure Air Temp Water Temp Dewpoint Dewpoint Depression Visibility Wind Speed Wind Dir Waves Ship Positions
date/time (UTC)wind fromknots sea level pressurealtimeterstation pressurevisibilityair tempwater tempwave heightnotes
2020-Jan-28 21:05 322 1 gusting 7 4.4
2020-Jan-28 20:59 309 2 gusting 9 4.4
2020-Jan-28 20:53 003 3 gusting 9 4.4
2020-Jan-28 20:48 005 2 gusting 8 4.4
2020-Jan-28 20:43 323 2 gusting 8 4.4
2020-Jan-28 20:38 279 3 gusting 7 4.4
2020-Jan-28 20:33 313 2 gusting 9 4.4
2020-Jan-28 20:28 305 4 gusting 14 4.4
2020-Jan-28 20:23 276 3 gusting 14 4.4
2020-Jan-28 20:19 342 4 gusting 13 4.4
2020-Jan-28 20:14 300 5 gusting 13 4.4
2020-Jan-28 20:08 338 6 gusting 11 4.4
2020-Jan-28 20:03 337 6 gusting 13 4.4
2020-Jan-28 19:58 003 6 gusting 13 5.0
2020-Jan-28 19:44 293 4 gusting 11 5.0
2020-Jan-28 19:38 335 4 gusting 11 5.0
2020-Jan-28 19:33 245 5 gusting 13 5.0
2020-Jan-28 19:28 049 4 gusting 13 5.0
2020-Jan-28 19:23 313 5 gusting 10 5.6
2020-Jan-28 19:18 336 5 gusting 10 5.6
2020-Jan-28 19:13 275 2 gusting 13 5.6
2020-Jan-28 19:08 288 4 gusting 13 5.6
2020-Jan-28 19:03 023 5 gusting 11 5.6
2020-Jan-28 18:58 328 3 gusting 9 5.6
2020-Jan-28 18:55 330 4 gusting 13 5.6
2020-Jan-28 18:49 287 5 gusting 13 6.1
2020-Jan-28 18:44 323 5 gusting 14 6.1
2020-Jan-28 18:38 288 4 gusting 11 6.1
2020-Jan-28 18:33 282 3 gusting 13 6.1
2020-Jan-28 18:28 293 4 gusting 13 6.1
2020-Jan-28 18:23 272 3 gusting 12 6.1
2020-Jan-28 18:18 285 4 gusting 11 6.1
2020-Jan-28 18:13 279 4 gusting 11 6.1
2020-Jan-28 18:08 313 4 gusting 10 6.7
2020-Jan-28 18:03 277 5 gusting 10 6.1
2020-Jan-28 18:00 274 4 gusting 10 6.7
2020-Jan-28 17:55 309 4 gusting 9 6.7
2020-Jan-28 17:49 309 3 gusting 9 6.7
2020-Jan-28 17:44 311 3 gusting 8 6.7
2020-Jan-28 17:38 333 3 gusting 10 6.7
2020-Jan-28 17:33 332 4 gusting 10 6.7
2020-Jan-28 17:28 300 2 gusting 10 6.7
2020-Jan-28 17:23 299 5 gusting 10 6.7
2020-Jan-28 17:18 357 4 gusting 12 6.7
2020-Jan-28 17:13 309 2 gusting 12 6.7
2020-Jan-28 17:08 305 5 gusting 9 6.7
2020-Jan-28 17:05 297 2 gusting 10 6.7
2020-Jan-28 16:59 211 3 gusting 10 6.7
2020-Jan-28 16:54 326 3 gusting 9 6.7
2020-Jan-28 16:48 294 4 gusting 8 6.7
2020-Jan-28 16:43 346 2 gusting 7 6.1
2020-Jan-28 16:38 285 4 gusting 9 6.1
2020-Jan-28 16:33 290 5 gusting 9 6.1
2020-Jan-28 16:28 338 3 gusting 9 6.1
2020-Jan-28 16:23 223 3 gusting 12 6.1
2020-Jan-28 16:18 300 4 gusting 12 6.1
2020-Jan-28 16:13 259 3 gusting 12 6.1
2020-Jan-28 16:08 053 4 gusting 12 5.6
2020-Jan-28 16:03 029 3 gusting 8 5.6
2020-Jan-28 16:00 315 4 gusting 9 5.6
2020-Jan-28 15:54 338 5 gusting 14 5.6
2020-Jan-28 15:48 290 3 gusting 14 5.6
2020-Jan-28 15:43 283 4 gusting 11 5.6
2020-Jan-28 15:38 269 2 gusting 9 5.0
2020-Jan-28 15:33 242 4 gusting 9 5.0
2020-Jan-28 15:28 313 4 gusting 6 5.0
2020-Jan-28 15:23 330 2 gusting 10 5.0
2020-Jan-28 15:18 335 4 gusting 11 4.4
2020-Jan-28 15:13 306 3 gusting 11 4.4
2020-Jan-28 15:08 306 2 gusting 8 4.4
2020-Jan-28 15:05 327 3 gusting 10 4.4
2020-Jan-28 15:00 259 4 gusting 11 4.4
2020-Jan-28 14:54 318 5 gusting 11 4.4
2020-Jan-28 14:49 223 5 gusting 12 4.4
2020-Jan-28 14:43 315 6 gusting 12 4.4
2020-Jan-28 14:38 339 3 gusting 8 4.4
2020-Jan-28 14:33 311 3 gusting 10 3.9
2020-Jan-28 14:28 262 3 gusting 12 3.9
2020-Jan-28 14:23 295 3 gusting 12 3.3
2020-Jan-28 14:18 263 4 gusting 8 3.3
2020-Jan-28 14:13 316 2 gusting 8 3.3
2020-Jan-28 14:08 311 4 gusting 7 3.3
2020-Jan-28 14:03 270 1 gusting 7 3.3
2020-Jan-28 13:59 285 3 gusting 5 3.3
2020-Jan-28 13:54 307 2 gusting 7 3.3
2020-Jan-28 13:48 326 1 gusting 6 3.3
2020-Jan-28 13:43 297 0 gusting 6 2.8
2020-Jan-28 13:38 262 2 gusting 7 2.8
2020-Jan-28 13:33 240 4 gusting 7 2.8
2020-Jan-28 13:28 281 1 gusting 6 2.8
2020-Jan-28 13:23 295 3 gusting 6 2.8
2020-Jan-28 13:18 302 2 gusting 6 2.8
2020-Jan-28 13:13 286 1 gusting 6 2.8
2020-Jan-28 13:08 316 2 gusting 5 2.8
2020-Jan-28 13:05 329 3 gusting 10 2.8
2020-Jan-28 13:00 260 3 gusting 10 2.8
2020-Jan-28 12:54 269 2 gusting 8 2.8
2020-Jan-28 12:48 248 1 gusting 5 2.8
2020-Jan-28 12:43 240 1 gusting 8 2.8
2020-Jan-28 12:38 266 0 gusting 8 2.8
2020-Jan-28 12:33 269 2.8
2020-Jan-28 12:28 268 1 gusting 6 2.8
2020-Jan-28 12:23 274 3 gusting 6 2.8
2020-Jan-28 12:18 290 2 gusting 5 2.8
2020-Jan-28 12:13 257 2 gusting 5 2.8
2020-Jan-28 12:08 261 1 gusting 6 2.8
2020-Jan-28 12:04 295 2 gusting 4 2.8
2020-Jan-28 11:59 294 1 gusting 6 2.8
2020-Jan-28 11:53 278 1 gusting 6 2.8
2020-Jan-28 11:48 272 0 gusting 6 2.8
2020-Jan-28 11:43 293 1 gusting 5 2.8
2020-Jan-28 11:38 259 2 gusting 7 2.8
2020-Jan-28 11:33 265 0 gusting 5 2.8
2020-Jan-28 11:28 275 2 gusting 6 2.8
2020-Jan-28 11:23 259 2 gusting 6 2.8
2020-Jan-28 11:18 285 1 gusting 5 2.8
2020-Jan-28 11:13 297 1 gusting 5 2.8
2020-Jan-28 11:10 324 2 gusting 6 2.8
2020-Jan-28 11:05 316 3 gusting 6 2.8
2020-Jan-28 10:59 288 1 gusting 7 2.8
2020-Jan-28 10:53 284 2 gusting 10 2.8
2020-Jan-28 10:48 316 1 gusting 10 2.8
2020-Jan-28 10:43 285 4 gusting 9 2.8
2020-Jan-28 10:38 300 2 gusting 7 2.8
2020-Jan-28 10:33 245 3 gusting 7 2.8
2020-Jan-28 10:28 274 1 gusting 6 2.8
2020-Jan-28 10:23 316 1 gusting 9 2.8
2020-Jan-28 10:18 281 2 gusting 9 2.8
2020-Jan-28 10:13 262 2 gusting 6 2.8
2020-Jan-28 10:08 239 2 gusting 6 2.8
2020-Jan-28 10:05 274 2 gusting 6 2.8
2020-Jan-28 09:59 300 1 gusting 6 2.8
2020-Jan-28 09:54 243 1 gusting 6 2.8
2020-Jan-28 09:48 290 1 gusting 6 2.8
2020-Jan-28 09:43 293 2 gusting 6 2.8
2020-Jan-28 09:38 286 2 gusting 7 2.8
2020-Jan-28 09:33 287 2 gusting 7 2.8
2020-Jan-28 09:28 288 1 gusting 5 2.8
2020-Jan-28 09:23 307 1 gusting 6 2.8
2020-Jan-28 09:18 248 1 gusting 7 2.8
2020-Jan-28 09:13 323 2 gusting 7 2.8
2020-Jan-28 09:08 294 2 gusting 9 2.8
2020-Jan-28 09:03 264 4 gusting 9 2.8
2020-Jan-28 08:58 276 3 gusting 8 2.8
2020-Jan-28 08:55 301 2 gusting 6 2.8
2020-Jan-28 08:49 276 1 gusting 6 2.8
2020-Jan-28 08:44 319 2 gusting 8 3.3
2020-Jan-28 08:38 263 3 gusting 8 3.3
2020-Jan-28 08:33 282 2 gusting 7 3.3
2020-Jan-28 08:28 278 3 gusting 7 3.3
2020-Jan-28 08:23 287 2 gusting 7 3.3
2020-Jan-28 08:18 289 1 gusting 6 3.3
2020-Jan-28 08:13 274 2 gusting 6 3.3
2020-Jan-28 08:08 269 3 gusting 6 3.3
2020-Jan-28 08:04 330 3 gusting 6 3.3
2020-Jan-28 07:59 266 2 gusting 6 3.3
2020-Jan-28 07:53 329 3 gusting 6 3.3
2020-Jan-28 07:48 308 3 gusting 6 3.3
2020-Jan-28 07:43 325 2 gusting 6 3.3
2020-Jan-28 07:38 309 1 gusting 5 3.3
2020-Jan-28 07:33 259 0 gusting 8 3.3
2020-Jan-28 07:28 332 2 gusting 6 3.3
2020-Jan-28 07:23 286 2 gusting 6 3.3
2020-Jan-28 07:18 299 2 gusting 6 3.3
2020-Jan-28 07:15 294 2 gusting 6 3.3
2020-Jan-28 07:10 274 2 gusting 6 3.3
2020-Jan-28 07:05 273 2 gusting 8 3.3
2020-Jan-28 07:00 324 3 gusting 8 3.3
2020-Jan-28 06:54 298 3 gusting 9 3.3
2020-Jan-28 06:49 340 2 gusting 6 3.3
2020-Jan-28 06:43 299 2 gusting 9 3.3
2020-Jan-28 06:38 320 3 gusting 9 3.9
2020-Jan-28 06:33 258 2 gusting 7 3.9
2020-Jan-28 06:28 326 1 gusting 6 3.9
2020-Jan-28 06:23 278 1 gusting 7 3.9
2020-Jan-28 06:18 347 1 gusting 7 3.9
2020-Jan-28 06:13 304 2 gusting 6 3.9
2020-Jan-28 06:08 307 1 gusting 6 3.9
2020-Jan-28 06:03 229 2 gusting 6 3.9
2020-Jan-28 05:58 274 0 gusting 5 3.9
2020-Jan-28 05:53 300 1 gusting 5 3.9
2020-Jan-28 05:50 307 1 gusting 6 3.9
2020-Jan-28 05:44 288 2 gusting 6 3.9
2020-Jan-28 05:39 318 3 gusting 10 3.9
2020-Jan-28 05:33 276 3 gusting 10 3.9
2020-Jan-28 05:28 283 4 gusting 8 3.9
2020-Jan-28 05:23 275 4 gusting 8 3.9
2020-Jan-28 05:18 296 3 gusting 8 3.9
2020-Jan-28 05:13 329 2 gusting 7 3.9
2020-Jan-28 05:08 276 1 gusting 6 3.9
2020-Jan-28 05:03 281 2 gusting 8 3.9
2020-Jan-28 04:58 302 2 gusting 9 3.9
2020-Jan-28 04:55 306 1 gusting 9 3.9
2020-Jan-28 04:50 280 1 gusting 6 4.4
2020-Jan-28 04:45 282 2 gusting 5 4.4
2020-Jan-28 04:39 326 1 gusting 6 4.4
2020-Jan-28 04:33 336 1 gusting 5 4.4
2020-Jan-28 04:28 356 1 gusting 5 4.4
2020-Jan-28 04:23 318 2 gusting 6 4.4
2020-Jan-28 04:18 285 2 gusting 9 4.4
2020-Jan-28 04:13 250 3 gusting 8 4.4
2020-Jan-28 04:08 287 0 gusting 6 4.4
2020-Jan-28 04:05 303 0 gusting 6 4.4
2020-Jan-28 04:00 316 0 gusting 3 5.0
2020-Jan-28 03:54 328 0 gusting 4 5.0
2020-Jan-28 03:48 261 5.0
2020-Jan-28 03:43 321 1 gusting 4 5.0
2020-Jan-28 03:38 345 1 gusting 4 5.0
2020-Jan-28 03:33 319 1 gusting 3 5.0
2020-Jan-28 03:28 304 0 gusting 2 5.0
2020-Jan-28 03:23 266 5.0
2020-Jan-28 03:18 297 5.0
2020-Jan-28 03:13 305 5.0
2020-Jan-28 03:08 253 5.0
2020-Jan-28 03:05 321 5.0
2020-Jan-28 02:59 296 5.0
2020-Jan-28 02:53 307 4.4
2020-Jan-28 02:48 307 5.0
2020-Jan-28 02:43 306 5.0
2020-Jan-28 02:38 307 5.0
2020-Jan-28 02:33 266 5.0
2020-Jan-28 02:28 266 5.0
2020-Jan-28 02:23 295 0 gusting 2 5.0
2020-Jan-28 02:18 243 5.0
2020-Jan-28 02:13 276 0 gusting 2 5.0
2020-Jan-28 02:08 285 0 gusting 2 5.0
2020-Jan-28 02:05 271 0 gusting 3 5.0
2020-Jan-28 01:59 261 0 gusting 3 5.0
2020-Jan-28 01:54 263 5.0
2020-Jan-28 01:48 262 0 gusting 3 5.0
2020-Jan-28 01:43 248 0 gusting 3 5.0
2020-Jan-28 01:38 257 5.0
2020-Jan-28 01:33 260 5.0
2020-Jan-28 01:28 285 0 gusting 4 5.0
2020-Jan-28 01:23 248 0 gusting 4 5.6
2020-Jan-28 01:20 282 0 gusting 4 5.6
2020-Jan-28 01:14 243 0 gusting 3 5.6
2020-Jan-28 01:09 278 0 gusting 2 5.6
2020-Jan-28 01:03 268 0 gusting 6 5.6
2020-Jan-28 00:58 347 1 gusting 6 5.6
2020-Jan-28 00:53 273 0 gusting 3 5.6
2020-Jan-28 00:48 264 0 gusting 3 5.6
2020-Jan-28 00:43 274 0 gusting 2 5.6
2020-Jan-28 00:38 276 0 gusting 2 5.6
2020-Jan-28 00:35 274 0 gusting 3 5.6
2020-Jan-28 00:29 271 0 gusting 3 5.6
2020-Jan-28 00:24 271 5.6
2020-Jan-28 00:18 257 5.6
2020-Jan-28 00:13 278 0 gusting 4 5.6
2020-Jan-28 00:08 276 0 gusting 4 5.6
2020-Jan-28 00:03 258 0 gusting 3 5.6
2020-Jan-27 23:58 266 0 gusting 2 5.6
2020-Jan-27 23:53 272 5.6
2020-Jan-27 23:48 273 0 gusting 4 6.1
2020-Jan-27 23:43 290 1 gusting 6 6.1
2020-Jan-27 23:38 269 1 gusting 6 6.1
2020-Jan-27 23:35 256 1 gusting 4 6.1
2020-Jan-27 23:30 264 1 gusting 5 6.1
2020-Jan-27 23:24 281 1 gusting 5 6.1
2020-Jan-27 23:18 294 1 gusting 4 5.6
2020-Jan-27 23:13 304 1 gusting 4 6.1
2020-Jan-27 23:08 277 1 gusting 4 6.1
2020-Jan-27 23:03 261 1 gusting 5 6.1
2020-Jan-27 22:58 259 2 gusting 5 6.1
2020-Jan-27 22:53 260 1 gusting 5 6.1
2020-Jan-27 22:48 284 0 gusting 6 6.1
2020-Jan-27 22:43 261 2 gusting 6 6.1
2020-Jan-27 22:38 339 1 gusting 6 6.1
2020-Jan-27 22:33 272 1 gusting 6 6.1
2020-Jan-27 22:30 300 2 gusting 6 6.1
2020-Jan-27 22:24 264 2 gusting 6 6.1
2020-Jan-27 22:19 272 2 gusting 9 6.1
2020-Jan-27 22:13 297 3 gusting 9 6.1
2020-Jan-27 22:08 276 1 gusting 8 6.7
2020-Jan-27 22:03 152 2 gusting 10 6.7
2020-Jan-27 21:58 290 4 gusting 10 6.7
2020-Jan-27 21:53 304 1 gusting 10 6.7
2020-Jan-27 21:48 291 3 gusting 10 6.7
2020-Jan-27 21:45 273 2 gusting 8 6.7
2020-Jan-27 21:39 266 2 gusting 7 6.7
2020-Jan-27 21:34 277 2 gusting 7 6.7
2020-Jan-27 21:28 271 2 gusting 7 6.7
2020-Jan-27 21:23 257 2 gusting 7 6.7
2020-Jan-27 21:18 259 3 gusting 7 6.7
2020-Jan-27 21:13 283 3 gusting 7 6.7
2020-Jan-27 21:08 266 2 gusting 7 6.7
2020-Jan-27 21:03 266 1 gusting 6 6.7
2020-Jan-27 20:58 262 2 gusting 6 6.7
2020-Jan-27 20:53 265 1 gusting 6 6.7
2020-Jan-27 20:48 269 2 gusting 6 6.7
2020-Jan-27 20:43 290 2 gusting 8 6.7
2020-Jan-27 20:40 231 3 gusting 8 6.7
2020-Jan-27 20:34 293 3 gusting 8 6.7
2020-Jan-27 20:29 257 3 gusting 10 6.7
2020-Jan-27 20:23 281 2 gusting 9 6.7
2020-Jan-27 20:18 258 2 gusting 9 6.7
2020-Jan-27 20:13 295 3 gusting 9 6.7
2020-Jan-27 20:08 255 3 gusting 8 6.7
2020-Jan-27 20:03 006 3 gusting 12 6.7
2020-Jan-27 19:58 269 1 gusting 12 6.7
2020-Jan-27 19:53 248 2 gusting 7 6.1
2020-Jan-27 19:48 264 3 gusting 7 6.1
2020-Jan-27 19:43 283 3 gusting 8 6.1
2020-Jan-27 19:40 269 3 gusting 8 6.1
2020-Jan-27 19:34 278 3 gusting 7 6.1
2020-Jan-27 19:29 276 2 gusting 7 6.1
2020-Jan-27 19:23 243 2 gusting 6 6.1
2020-Jan-27 19:18 230 2 gusting 8 6.1
2020-Jan-27 19:13 247 3 gusting 8 6.1
2020-Jan-27 19:08 201 1 gusting 7 6.1
2020-Jan-27 19:03 293 2 gusting 7 6.1
2020-Jan-27 18:58 187 1 gusting 7 6.1
2020-Jan-27 18:53 236 2 gusting 9 6.1
2020-Jan-27 18:48 273 4 gusting 7 6.1
2020-Jan-27 18:45 200 2 gusting 8 6.1
2020-Jan-27 18:40 230 3 gusting 8 6.1
2020-Jan-27 18:34 223 3 gusting 8 6.1
2020-Jan-27 18:29 253 3 gusting 9 6.1
2020-Jan-27 18:23 287 3 gusting 9 6.1
2020-Jan-27 18:18 280 5 gusting 9 6.1
2020-Jan-27 18:13 213 3 gusting 11 6.1
2020-Jan-27 18:08 283 2 gusting 9 6.1
2020-Jan-27 18:03 276 3 gusting 9 6.7
2020-Jan-27 17:58 244 4 gusting 9 6.1
2020-Jan-27 17:55 272 4 gusting 9 6.7
2020-Jan-27 17:49 281 4 gusting 11 6.1
2020-Jan-27 17:43 285 4 gusting 11 6.1
2020-Jan-27 17:38 274 5 gusting 10 6.1
2020-Jan-27 17:33 221 5 gusting 8 6.1
2020-Jan-27 17:28 283 2 gusting 8 6.1
2020-Jan-27 17:23 271 3 gusting 8 6.1
2020-Jan-27 17:18 282 3 gusting 11 5.6
2020-Jan-27 17:13 269 2 gusting 11 5.6
2020-Jan-27 17:08 300 6 gusting 10 5.6
2020-Jan-27 17:03 239 3 gusting 8 5.6
2020-Jan-27 17:00 316 3 gusting 9 5.6
2020-Jan-27 16:54 330 2 gusting 8 5.6
2020-Jan-27 16:48 262 3 gusting 11 5.6
2020-Jan-27 16:43 259 4 gusting 11 5.6
2020-Jan-27 16:38 255 5 gusting 11 5.6
2020-Jan-27 16:33 313 5 gusting 11 5.6
2020-Jan-27 16:28 248 3 gusting 9 5.6
2020-Jan-27 16:23 266 2 gusting 14 5.6
2020-Jan-27 16:18 301 4 gusting 14 5.6
2020-Jan-27 16:13 267 4 gusting 9 5.6
2020-Jan-27 16:08 188 4 gusting 8 5.6
2020-Jan-27 16:05 284 3 gusting 10 5.6
2020-Jan-27 16:00 263 2 gusting 8 5.6
2020-Jan-27 15:54 264 1 gusting 8 5.6
2020-Jan-27 15:48 279 1 gusting 7 5.6
2020-Jan-27 15:43 244 1 gusting 7 5.6
2020-Jan-27 15:38 216 1 gusting 5 5.6
2020-Jan-27 15:33 255 1 gusting 10 5.0
2020-Jan-27 15:28 248 3 gusting 8 5.0
2020-Jan-27 15:23 233 2 gusting 9 5.0
2020-Jan-27 15:18 221 5 gusting 9 5.0
2020-Jan-27 15:13 223 2 gusting 6 5.0
2020-Jan-27 15:08 256 1 gusting 12 4.4
2020-Jan-27 15:05 266 2 gusting 12 4.4
2020-Jan-27 15:00 288 1 gusting 7 4.4
2020-Jan-27 14:54 280 1 gusting 5 4.4
2020-Jan-27 14:48 274 1 gusting 7 4.4
2020-Jan-27 14:43 292 0 gusting 6 4.4
2020-Jan-27 14:38 259 2 gusting 6 3.9
2020-Jan-27 14:33 264 1 gusting 5 3.9
2020-Jan-27 14:28 267 0 gusting 6 3.9
2020-Jan-27 14:23 306 2 gusting 6 3.9
2020-Jan-27 14:18 247 1 gusting 6 3.9
2020-Jan-27 14:13 289 1 gusting 6 3.9
2020-Jan-27 14:08 229 2 gusting 6 3.9
2020-Jan-27 14:03 253 2 gusting 6 3.9
2020-Jan-27 13:58 282 0 gusting 4 3.3
2020-Jan-27 13:55 255 1 gusting 4 3.3
2020-Jan-27 13:50 252 0 gusting 6 3.3
2020-Jan-27 13:44 226 0 gusting 6 3.3
2020-Jan-27 13:39 228 0 gusting 4 3.3
2020-Jan-27 13:33 249 0 gusting 7 3.3
2020-Jan-27 13:28 226 0 gusting 7 3.3
2020-Jan-27 13:23 271 0 gusting 6 2.8
2020-Jan-27 13:18 247 0 gusting 6 2.8
2020-Jan-27 13:13 276 0 gusting 5 2.8
2020-Jan-27 13:08 195 0 gusting 5 2.8
2020-Jan-27 13:03 266 0 gusting 4 2.8
2020-Jan-27 12:58 243 0 gusting 3 2.8
2020-Jan-27 12:53 257 0 gusting 6 2.8
2020-Jan-27 12:50 221 1 gusting 6 2.8
2020-Jan-27 12:45 267 0 gusting 6 2.8
2020-Jan-27 12:39 257 0 gusting 5 2.8
2020-Jan-27 12:33 271 0 gusting 5 2.8
2020-Jan-27 12:28 298 0 gusting 5 2.8
2020-Jan-27 12:23 244 0 gusting 6 2.8
2020-Jan-27 12:18 285 1 gusting 5 2.2
2020-Jan-27 12:13 250 2 gusting 5 2.2
2020-Jan-27 12:08 237 0 gusting 5 2.2
2020-Jan-27 12:03 212 1 gusting 6 2.2
2020-Jan-27 11:58 260 1 gusting 6 2.2
2020-Jan-27 11:55 269 1 gusting 4 2.2
2020-Jan-27 11:49 261 0 gusting 6 2.2
2020-Jan-27 11:44 223 1 gusting 6 2.2
2020-Jan-27 11:38 196 0 gusting 4 2.2
2020-Jan-27 11:33 259 0 gusting 4 2.2
2020-Jan-27 11:28 243 1 gusting 3 2.2
2020-Jan-27 11:23 271 2.2
2020-Jan-27 11:18 262 0 gusting 6 2.2
2020-Jan-27 11:13 206 2.2
2020-Jan-27 11:08 309 0 gusting 7 2.2
2020-Jan-27 11:03 272 0 gusting 7 2.2
2020-Jan-27 11:00 288 0 gusting 5 2.2
2020-Jan-27 10:54 278 0 gusting 4 2.2
2020-Jan-27 10:49 231 0 gusting 7 2.2
2020-Jan-27 10:43 295 1 gusting 7 2.2
2020-Jan-27 10:38 284 0 gusting 6 2.2
2020-Jan-27 10:33 266 1 gusting 6 2.2
2020-Jan-27 10:28 230 1 gusting 6 2.2
2020-Jan-27 10:23 246 1 gusting 6 2.2
2020-Jan-27 10:18 283 1 gusting 7 2.2
2020-Jan-27 10:13 250 1 gusting 7 2.2
2020-Jan-27 10:08 250 0 gusting 4 2.2
2020-Jan-27 10:03 259 0 gusting 4 2.2
2020-Jan-27 10:00 254 0 gusting 6 2.2
2020-Jan-27 09:55 267 0 gusting 6 2.2
2020-Jan-27 09:49 275 0 gusting 6 2.2
2020-Jan-27 09:44 227 0 gusting 4 2.2
2020-Jan-27 09:38 293 1 gusting 4 2.2
2020-Jan-27 09:33 262 0 gusting 7 2.2
2020-Jan-27 09:28 224 2 gusting 7 2.2
2020-Jan-27 09:23 291 2.2
2020-Jan-27 09:18 209 0 gusting 6 2.2
2020-Jan-27 09:13 285 0 gusting 4 2.2
2020-Jan-27 09:08 290 2.2
2020-Jan-27 09:05 262 0 gusting 5 2.2
2020-Jan-27 09:00 274 0 gusting 4 2.2
2020-Jan-27 08:55 281 0 gusting 4 2.2
2020-Jan-27 08:49 198 0 gusting 3 2.2
2020-Jan-27 08:43 262 0 gusting 3 2.2
2020-Jan-27 08:38 281 0 gusting 5 2.2
2020-Jan-27 08:33 257 1 gusting 5 2.2
2020-Jan-27 08:28 240 0 gusting 4 2.2
2020-Jan-27 08:23 278 2.2
2020-Jan-27 08:18 280 1.7
2020-Jan-27 08:13 265 1.7
2020-Jan-27 08:08 247 0 gusting 2 1.7
2020-Jan-27 08:05 283 1.7
2020-Jan-27 08:00 289 0 gusting 2 1.7
2020-Jan-27 07:54 260 0 gusting 2 1.7
2020-Jan-27 07:48 290 0 gusting 4 1.7
2020-Jan-27 07:43 257 2.2
2020-Jan-27 07:38 259 0 gusting 3 1.7
2020-Jan-27 07:33 255 0 gusting 4 1.7
2020-Jan-27 07:28 261 0 gusting 4 1.7
2020-Jan-27 07:23 252 1.7
2020-Jan-27 07:18 284 1 gusting 4 1.7
2020-Jan-27 07:13 288 0 gusting 4 1.7
2020-Jan-27 07:10 213 1.1
2020-Jan-27 07:04 264 1.1
2020-Jan-27 06:58 256 1.1
2020-Jan-27 06:53 249 0 gusting 2 1.1
2020-Jan-27 06:48 240 1.1
2020-Jan-27 06:43 248 0 gusting 1 1.1
2020-Jan-27 06:38 240 1.1
2020-Jan-27 06:33 259 1.1
2020-Jan-27 06:28 264 1.1
2020-Jan-27 06:23 243 1.1
2020-Jan-27 06:18 188 1.1
2020-Jan-27 06:15 264 1.1
2020-Jan-27 06:09 247 1.1
2020-Jan-27 06:03 243 1.1
2020-Jan-27 05:58 243 1.1
2020-Jan-27 05:53 240 1.1
2020-Jan-27 05:48 223 1.1
2020-Jan-27 05:43 240 1.1
2020-Jan-27 05:38 236 1.7
2020-Jan-27 05:33 234 1.7
2020-Jan-27 05:28 239 1.7
2020-Jan-27 05:23 249 1.7
2020-Jan-27 05:20 254 1.7
2020-Jan-27 05:15 271 1.7
2020-Jan-27 05:09 259 1.7
2020-Jan-27 05:04 284 1.7
2020-Jan-27 04:58 260 1.7
2020-Jan-27 04:53 265 1.7
2020-Jan-27 04:48 257 0 gusting 3 1.7
2020-Jan-27 04:43 271 0 gusting 3 2.2
2020-Jan-27 04:38 263 0 gusting 2 2.2
2020-Jan-27 04:33 256 2.2
2020-Jan-27 04:28 243 2.2
2020-Jan-27 04:23 245 0 gusting 3 2.2
2020-Jan-27 04:20 277 0 gusting 3 2.2
2020-Jan-27 04:14 264 0 gusting 3 2.2
2020-Jan-27 04:09 253 0 gusting 1 2.8
2020-Jan-27 04:03 281 0 gusting 4 2.8
2020-Jan-27 03:58 267 1 gusting 4 2.8
2020-Jan-27 03:53 260 2.8
2020-Jan-27 03:48 276 2.8
2020-Jan-27 03:43 264 0 gusting 2 2.8
2020-Jan-27 03:38 260 3.3
2020-Jan-27 03:33 283 0 gusting 6 3.3
2020-Jan-27 03:28 251 1 gusting 6 3.3
2020-Jan-27 03:23 293 1 gusting 6 3.3
2020-Jan-27 03:20 257 1 gusting 6 3.3
2020-Jan-27 03:15 282 1 gusting 6 3.3
2020-Jan-27 03:09 245 0 gusting 6 3.3
2020-Jan-27 03:03 301 0 gusting 6 3.3
2020-Jan-27 02:58 249 1 gusting 6 3.3
2020-Jan-27 02:53 277 0 gusting 6 3.3
2020-Jan-27 02:48 301 1 gusting 5 3.3
2020-Jan-27 02:43 243 0 gusting 6 3.3
2020-Jan-27 02:38 265 3 gusting 6 3.3
2020-Jan-27 02:33 274 1 gusting 3 3.3
2020-Jan-27 02:28 274 1 gusting 5 3.3
2020-Jan-27 02:23 262 1 gusting 5 3.3
2020-Jan-27 02:18 274 0 gusting 4 3.3
2020-Jan-27 02:15 252 0 gusting 4 3.3
2020-Jan-27 02:08 268 1 gusting 3 3.3
2020-Jan-27 02:05 266 0 gusting 3 3.3
2020-Jan-27 01:59 295 0 gusting 2 3.3
2020-Jan-27 01:53 277 0 gusting 2 3.3
2020-Jan-27 01:48 252 0 gusting 4 3.9
2020-Jan-27 01:43 262 0 gusting 5 3.9
2020-Jan-27 01:38 272 1 gusting 5 3.9
2020-Jan-27 01:33 258 0 gusting 6 3.9
2020-Jan-27 01:28 276 1 gusting 6 3.9
2020-Jan-27 01:23 271 2 gusting 6 3.9
2020-Jan-27 01:18 277 1 gusting 6 3.9
2020-Jan-27 01:13 298 1 gusting 7 3.9
2020-Jan-27 01:08 318 2 gusting 7 3.9
2020-Jan-27 01:05 244 2 gusting 6 3.9
2020-Jan-27 00:59 285 1 gusting 6 3.9
2020-Jan-27 00:54 276 2 gusting 6 4.4
2020-Jan-27 00:48 227 3 gusting 6 4.4
2020-Jan-27 00:43 278 2 gusting 7 4.4
2020-Jan-27 00:38 296 2 gusting 7 4.4
2020-Jan-27 00:33 278 0 gusting 6 4.4
2020-Jan-27 00:28 274 2 gusting 6 4.4
2020-Jan-27 00:23 267 1 gusting 4 4.4
2020-Jan-27 00:20 255 1 gusting 6 4.4
2020-Jan-27 00:14 248 1 gusting 6 4.4
2020-Jan-27 00:09 272 0 gusting 6 4.4
2020-Jan-27 00:03 260 1 gusting 5 5.0
2020-Jan-26 23:58 259 0 gusting 3 5.0
2020-Jan-26 23:53 285 0 gusting 5 5.0
2020-Jan-26 23:48 267 1 gusting 6 5.6
2020-Jan-26 23:43 281 2 gusting 6 5.6
2020-Jan-26 23:38 244 2 gusting 6 5.6
2020-Jan-26 23:33 269 4 gusting 7 6.1
2020-Jan-26 23:28 316 3 gusting 7 6.1
2020-Jan-26 23:23 276 2 gusting 7 6.1
2020-Jan-26 23:20 289 3 gusting 8 6.1
2020-Jan-26 23:15 222 4 gusting 8 6.1
2020-Jan-26 23:09 283 4 gusting 9 6.1
2020-Jan-26 23:03 319 5 gusting 9 6.1
2020-Jan-26 22:58 260 4 gusting 10 6.1
2020-Jan-26 22:53 271 5 gusting 10 6.1
2020-Jan-26 22:48 285 3 gusting 7 6.1
2020-Jan-26 22:43 275 2 gusting 7 6.1
2020-Jan-26 22:38 245 4 gusting 7 6.1
2020-Jan-26 22:33 248 3 gusting 6 6.1
2020-Jan-26 22:28 271 1 gusting 8 6.7
2020-Jan-26 22:25 237 1 gusting 8 6.7
2020-Jan-26 22:19 292 0 gusting 5 6.7
2020-Jan-26 22:14 263 1 gusting 7 6.7
2020-Jan-26 22:08 266 0 gusting 7 6.7
2020-Jan-26 22:03 249 0 gusting 5 6.7